User: anonymous   Login
Location: B?jaj?g
(11.7167°N, 92.6667°E)
Time: 03:41:10
(UTC+00:00)
Language:

GPS 2-15 Rocket1 - Orbit

View from above orbital plane
View from above orbital plane
View from above satellite
View from above satellite

Ground track
Ground track

The orbit data is extracted from the following two-line orbital elements,

1 22109U 92058B   20333.06722088  .00000578  00000-0  30495-4 0  9997
2 22109  19.7818 226.1150 0036499 256.2599 103.3748 14.73613024516386
Epoch (UTC): 28 November 2020 01:36:47
Eccentricity: 0.0036499
inclination: 19.7818°
perigee height: 624 km
apogee height: 675 km
right ascension of ascending node: 226.1150°
argument of perigee: 256.2599°
revolutions per day: 14.73613024
mean anomaly at epoch: 103.3748°
orbit number at epoch: 51638

The dashed part of the orbit path shows where the satellite is in the earth's shadow,  

DLR